TimePST,TemperatureF,Dew PointF,Humidity,Sea Level PressureIn,VisibilityMPH,Wind Direction,Wind SpeedMPH,Gust SpeedMPH,PrecipitationIn,Events,Conditions,WindDirDegrees,DateUTC
12:56 AM,50.0,36.0,59,30.07,10.0,SSE,19.6,27.6,N/A,,Scattered Clouds,150,2013-01-24 08:56:00
6:56 AM,44.1,39.0,82,30.14,10.0,Calm,Calm,-,N/A,,Overcast,0,2013-01-24 14:56:00
7:56 AM,45.0,39.0,80,30.14,10.0,WNW,3.5,-,N/A,,Overcast,300,2013-01-24 15:56:00
8:56 AM,45.0,39.0,80,30.17,10.0,Calm,Calm,-,N/A,,Overcast,0,2013-01-24 16:56:00
9:07 AM,46.4,39.2,76,30.22,10.0,WNW,4.6,-,N/A,,Overcast,300,2013-01-24 17:07:00
9:29 AM,46.4,37.4,71,30.23,10.0,NW,3.5,-,N/A,,Overcast,320,2013-01-24 17:29:00
9:56 AM,46.9,39.0,74,30.19,10.0,NNW,3.5,-,N/A,,Overcast,340,2013-01-24 17:56:00
10:56 AM,50.0,39.9,68,30.17,10.0,North,3.5,-,0.00,Rain,Light Rain,360,2013-01-24 18:56:00
11:56 AM,53.1,37.9,57,30.15,10.0,Calm,Calm,-,0.00,,Clear,0,2013-01-24 19:56:00
12:56 PM,52.0,37.0,57,30.13,10.0,Variable,4.6,-,N/A,,Mostly Cloudy,0,2013-01-24 20:56:00
1:56 PM,53.1,37.9,57,30.12,10.0,Variable,3.5,-,N/A,,Clear,0,2013-01-24 21:56:00
3:56 PM,54.0,39.0,57,30.12,10.0,Calm,Calm,-,N/A,,Mostly Cloudy,0,2013-01-24 23:56:00
4:56 PM,52.0,39.0,61,30.14,10.0,South,4.6,-,N/A,,Overcast,180,2013-01-25 00:56:00
5:56 PM,50.0,39.0,66,30.16,10.0,South,5.8,-,N/A,,Overcast,180,2013-01-25 01:56:00
6:56 PM,50.0,39.9,68,30.18,10.0,South,9.2,-,N/A,,Overcast,170,2013-01-25 02:56:00
7:56 PM,48.9,41.0,74,30.19,10.0,South,4.6,-,N/A,,Overcast,170,2013-01-25 03:56:00
8:56 PM,48.0,41.0,77,30.20,10.0,South,4.6,-,N/A,,Overcast,190,2013-01-25 04:56:00
9:56 PM,46.9,41.0,80,30.20,10.0,SE,4.6,-,N/A,,Overcast,140,2013-01-25 05:56:00
10:56 PM,46.9,39.9,77,30.21,10.0,Calm,Calm,-,N/A,,Overcast,0,2013-01-25 06:56:00
11:56 PM,46.9,41.0,80,30.20,10.0,Calm,Calm,-,N/A,,Overcast,0,2013-01-25 07:56:00